Crown Topaz — 3FAS9 — position and weather

sailwx.info

Track history (hours):
 
Tides and Currents Weather Stations Pressure Air Temp Water Temp Dewpoint Dewpoint Depression Visibility Wind Speed Wind Dir Waves Ship Positions

Crown Topaz

Last reported at 2015-May-08 22:10 UTC. Time now 2015-May-24 15:21 UTC.
Position N 17°35' W 063°05'.
Warning: this ship's position is 15 days out of date.

Length 152 m; draft 6.9 m.

Type: Cargo ship. MMSI: 357144000.

Date/timePositionNaut miles runAvg speedWind from/ knotsBaromVisibWave heightAir tempDewpointWater temp
2015-May-08 22:10N 17°35' W 063°05'915.4
2015-May-08 21:33N 17°45' W 063°05'1515.5
2015-May-08 20:33N 18°00' W 063°04'1 1.1
2015-May-08 19:28N 18°00' W 063°03'0 0.0
2015-May-08 18:27N 18°00' W 063°03'0 0.0
2015-May-08 17:26N 18°00' W 063°03'0 0.0
2015-May-08 16:25N 18°00' W 063°03'0 0.0
2015-May-08 15:30N 18°00' W 063°03'0 0.0
2015-May-08 14:13N 18°00' W 063°03'0 0.0
2015-May-08 13:27N 18°00' W 063°03'0 0.0
2015-May-08 12:18N 18°00' W 063°03'0 0.0
2015-May-08 11:19N 18°00' W 063°03'0 0.1
2015-May-08 10:31N 18°01' W 063°03'3 3.3
2015-May-08 09:33N 17°59' W 063°06'9 9.3
2015-May-08 08:33N 17°53' W 063°13'2 2.0
2015-May-08 07:29N 17°51' W 063°12'  
2015-May-03 09:15N 36°60' W 029°18'1419.7
2015-May-03 08:33N 37°07' W 029°04'1919.6
2015-May-03 07:33N 37°18' W 028°43'2019.7
2015-May-03 06:33N 37°28' W 028°22'2019.8
2015-May-03 05:33N 37°39' W 028°01'1919.2
2015-May-03 04:33N 37°49' W 027°40'1919.2
2015-May-03 03:34N 37°60' W 027°20'1918.7
2015-May-03 02:33N 38°10' W 026°60'1918.6
2015-May-03 01:34N 38°20' W 026°40'1918.5
2015-May-03 00:33N 38°30' W 026°20'1918.3
2015-May-02 23:29N 38°40' W 025°59'1718.4
2015-May-02 22:33N 38°50' W 025°41'  
2015-Apr-30 07:27N 49°53' W 003°11'8917.0
2015-Apr-30 02:12N 49°43' W 000°53'1319.6
2015-Apr-30 01:34N 49°38' W 000°36'1919.0
2015-Apr-30 00:34N 49°30' W 000°09'1312.7
2015-Apr-29 23:33N 49°26' E 000°09'1313.4
2015-Apr-29 22:34N 49°29' E 000°29'0 0.0
2015-Apr-29 21:32N 49°29' E 000°29'0 0.0
2015-Apr-29 20:32N 49°29' E 000°29'0 0.0
2015-Apr-29 19:32N 49°29' E 000°29'0 0.0
2015-Apr-29 18:32N 49°29' E 000°29'0 0.0
2015-Apr-29 17:32N 49°29' E 000°29'0 0.0
2015-Apr-29 16:32N 49°29' E 000°29'0 0.0
2015-Apr-29 15:29N 49°29' E 000°29'0 0.0
2015-Apr-29 14:32N 49°29' E 000°29'0 0.0
2015-Apr-29 13:33N 49°29' E 000°29'4 4.4
2015-Apr-29 12:33N 49°27' E 000°24'1111.1
2015-Apr-29 11:33N 49°26' E 000°07'1111.3
2015-Apr-29 10:34N 49°30' W 000°10'1818.4
2015-Apr-29 09:33N 49°48' W 000°09'3918.9
2015-Apr-29 07:29N 50°27' W 000°03'1718.2
2015-Apr-29 06:33N 50°32' E 000°22'1817.8
2015-Apr-29 05:33N 50°41' E 000°47'1918.5
2015-Apr-29 04:33N 50°51' E 001°12'2020.0
2015-Apr-29 03:33N 51°05' E 001°33'2020.0
2015-Apr-29 02:34N 51°20' E 001°54'1716.3
2015-Apr-29 01:30N 51°21' E 002°22'1415.4
2015-Apr-29 00:33N 51°23' E 002°45'1212.0
2015-Apr-28 23:33N 51°25' E 003°04'1515.0
2015-Apr-28 22:33N 51°25' E 003°28'  
Track history (hours):
 
Tides and Currents Weather Stations Pressure Air Temp Water Temp Dewpoint Dewpoint Depression Visibility Wind Speed Wind Dir Waves Ship Positions

Crown Topaz

Last reported at 2015-May-08 22:10 UTC. Time now 2015-May-24 15:21 UTC.
Position N 17°35' W 063°05'.
Warning: this ship's position is 15 days out of date.

Length 152 m; draft 6.9 m.

Type: Cargo ship. MMSI: 357144000.

Date/timePositionNaut miles runAvg speedWind from/ knotsBaromVisibWave heightAir tempDewpointWater temp
2015-May-08 22:10N 17°35' W 063°05'915.4
2015-May-08 21:33N 17°45' W 063°05'1515.5
2015-May-08 20:33N 18°00' W 063°04'1 1.1
2015-May-08 19:28N 18°00' W 063°03'0 0.0
2015-May-08 18:27N 18°00' W 063°03'0 0.0
2015-May-08 17:26N 18°00' W 063°03'0 0.0
2015-May-08 16:25N 18°00' W 063°03'0 0.0
2015-May-08 15:30N 18°00' W 063°03'0 0.0
2015-May-08 14:13N 18°00' W 063°03'0 0.0
2015-May-08 13:27N 18°00' W 063°03'0 0.0
2015-May-08 12:18N 18°00' W 063°03'0 0.0
2015-May-08 11:19N 18°00' W 063°03'0 0.1
2015-May-08 10:31N 18°01' W 063°03'3 3.3
2015-May-08 09:33N 17°59' W 063°06'9 9.3
2015-May-08 08:33N 17°53' W 063°13'2 2.0
2015-May-08 07:29N 17°51' W 063°12'  
2015-May-03 09:15N 36°60' W 029°18'1419.7
2015-May-03 08:33N 37°07' W 029°04'1919.6
2015-May-03 07:33N 37°18' W 028°43'2019.7
2015-May-03 06:33N 37°28' W 028°22'2019.8
2015-May-03 05:33N 37°39' W 028°01'1919.2
2015-May-03 04:33N 37°49' W 027°40'1919.2
2015-May-03 03:34N 37°60' W 027°20'1918.7
2015-May-03 02:33N 38°10' W 026°60'1918.6
2015-May-03 01:34N 38°20' W 026°40'1918.5
2015-May-03 00:33N 38°30' W 026°20'1918.3
2015-May-02 23:29N 38°40' W 025°59'1718.4
2015-May-02 22:33N 38°50' W 025°41'  
2015-Apr-30 07:27N 49°53' W 003°11'8917.0
2015-Apr-30 02:12N 49°43' W 000°53'1319.6
2015-Apr-30 01:34N 49°38' W 000°36'1919.0
2015-Apr-30 00:34N 49°30' W 000°09'1312.7
2015-Apr-29 23:33N 49°26' E 000°09'1313.4
2015-Apr-29 22:34N 49°29' E 000°29'0 0.0
2015-Apr-29 21:32N 49°29' E 000°29'0 0.0
2015-Apr-29 20:32N 49°29' E 000°29'0 0.0
2015-Apr-29 19:32N 49°29' E 000°29'0 0.0
2015-Apr-29 18:32N 49°29' E 000°29'0 0.0
2015-Apr-29 17:32N 49°29' E 000°29'0 0.0
2015-Apr-29 16:32N 49°29' E 000°29'0 0.0
2015-Apr-29 15:29N 49°29' E 000°29'0 0.0
2015-Apr-29 14:32N 49°29' E 000°29'0 0.0
2015-Apr-29 13:33N 49°29' E 000°29'4 4.4
2015-Apr-29 12:33N 49°27' E 000°24'1111.1
2015-Apr-29 11:33N 49°26' E 000°07'1111.3
2015-Apr-29 10:34N 49°30' W 000°10'1818.4
2015-Apr-29 09:33N 49°48' W 000°09'3918.9
2015-Apr-29 07:29N 50°27' W 000°03'1718.2
2015-Apr-29 06:33N 50°32' E 000°22'1817.8
2015-Apr-29 05:33N 50°41' E 000°47'1918.5
2015-Apr-29 04:33N 50°51' E 001°12'2020.0
2015-Apr-29 03:33N 51°05' E 001°33'2020.0
2015-Apr-29 02:34N 51°20' E 001°54'1716.3
2015-Apr-29 01:30N 51°21' E 002°22'1415.4
2015-Apr-29 00:33N 51°23' E 002°45'1212.0
2015-Apr-28 23:33N 51°25' E 003°04'1515.0
2015-Apr-28 22:33N 51°25' E 003°28'  

Dump ship's entire track history